West Columbia, SC

1:45 PM EST on February 25, 2017 (GMT -0500)
Columbia Metro

Weather History for KCAE - January, 2013

Change the Weather History Date:

Thursday, January 24, 2013

  Actual Average Record
Temperature  
Mean Temperature 49 °F 45 °F  
Max Temperature 63 °F 57 °F 84 °F (1974)
Min Temperature 34 °F 34 °F 13 °F (1970)
Degree Days  
Heating Degree Days 16 20  
Month to date heating degree days 295 493  
Since 1 July heating degree days 1135 1503  
Cooling Degree Days 0 0  
Month to date cooling degree days 21 0  
Year to date cooling degree days 21 0  
Moisture  
Dew Point 25 °F    
Average Humidity 43    
Maximum Humidity 71    
Minimum Humidity 14    
Precipitation  
Precipitation 0.00 in 0.12 in 2.50 in (1958)
Month to date precipitation 0.81 2.76  
Year to date precipitation 0.81 2.76  
Sea Level Pressure  
Sea Level Pressure 30.21 in    
Wind  
Wind Speed 12 mph (NNW)    
Max Wind Speed 21 mph    
Max Gust Speed 26 mph    
Visibility 10 miles    
Events      
T = Trace of Precipitation, MM = Missing Value Source: NWS Daily Summary

Daily Weather History Graph

Daily Weather History Graph

Search for Another Location

Airport or City:

Trip Planner

Search our weather history database for the weather conditions in past years. The results will help you decide how hot, cold, wet, or windy it might be!

Date:

Astronomy

Jan. 24, 2013 Rise Set
Actual Time 7:26 AM EST 5:47 PM EST
Civil Twilight 6:59 AM EST 6:14 PM EST
Nautical Twilight 6:29 AM EST 6:44 PM EST
Astronomical Twilight 5:59 AM EST 7:14 PM EST
Moon 3:49 PM EST (1/24) 5:20 AM EST (1/24)
Length of Visible Light 11h 14m
Length of Day
10h 21m
Waxing Gibbous, 94% of the Moon is Illuminated
Jan 24
Waxing Gibbous
Jan 26
Full
Feb 3
Last Quarter
Feb 10
New
Feb 17
First Quarter

Hourly Weather History & Observations

Time (EST) Temp. Windchill Dew Point Humidity Pressure Visibility Wind Dir Wind Speed Gust Speed Precip Events Conditions
12:56 AM 44.1 °F 38.6 °F 30.9 °F 60% 30.12 in 10.0 mi WSW 10.4 mph - N/A   Clear
1:56 AM 44.1 °F 39.0 °F 32.0 °F 63% 30.09 in 9.0 mi WSW 9.2 mph - N/A   Clear
2:56 AM 45.0 °F 39.3 °F 34.0 °F 65% 30.08 in 9.0 mi SW 11.5 mph - N/A   Clear
3:56 AM 45.0 °F 41.2 °F 36.0 °F 71% 30.06 in 9.0 mi WSW 6.9 mph - N/A   Clear
4:56 AM 48.0 °F - 37.9 °F 68% 30.05 in 10.0 mi WSW 11.5 mph - N/A   Clear
5:56 AM 51.1 °F - 39.0 °F 63% 30.06 in 10.0 mi West 12.7 mph - N/A   Clear
6:56 AM 50.0 °F - 39.0 °F 66% 30.07 in 10.0 mi WSW 6.9 mph - N/A   Clear
7:56 AM 48.0 °F - 39.0 °F 71% 30.09 in 10.0 mi WSW 8.1 mph - N/A   Mostly Cloudy
8:56 AM 52.0 °F - 39.9 °F 63% 30.12 in 10.0 mi WSW 11.5 mph - N/A   Scattered Clouds
9:56 AM 57.0 °F - 37.0 °F 47% 30.15 in 10.0 mi WNW 15.0 mph - N/A   Partly Cloudy
10:56 AM 59.0 °F - 35.1 °F 41% 30.15 in 10.0 mi WNW 13.8 mph - N/A   Partly Cloudy
11:56 AM 60.1 °F - 30.0 °F 32% 30.17 in 10.0 mi NW 18.4 mph 24.2 mph 0.00 in   Scattered Clouds
12:56 PM 61.0 °F - 28.9 °F 30% 30.16 in 10.0 mi NNW 12.7 mph 19.6 mph N/A   Scattered Clouds
1:56 PM 61.0 °F - 32.0 °F 34% 30.17 in 10.0 mi North 9.2 mph - N/A   Mostly Cloudy
2:56 PM 60.1 °F - 21.0 °F 22% 30.20 in 10.0 mi NNE 13.8 mph - N/A   Mostly Cloudy
3:56 PM 59.0 °F - 10.9 °F 15% 30.22 in 10.0 mi NNE 10.4 mph - N/A   Mostly Cloudy
4:56 PM 53.1 °F - 19.9 °F 27% 30.27 in 10.0 mi ENE 11.5 mph 21.9 mph N/A   Mostly Cloudy
5:56 PM 48.0 °F - 17.1 °F 29% 30.32 in 10.0 mi NE 11.5 mph 17.3 mph N/A   Scattered Clouds
6:56 PM 44.1 °F 37.1 °F 12.0 °F 27% 30.38 in 10.0 mi NE 15.0 mph 21.9 mph N/A   Scattered Clouds
7:56 PM 41.0 °F 32.8 °F 9.0 °F 27% 30.41 in 10.0 mi ENE 16.1 mph 21.9 mph N/A   Scattered Clouds
8:56 PM 39.0 °F 30.6 °F 7.0 °F 27% 30.45 in 10.0 mi NE 15.0 mph 23.0 mph N/A   Scattered Clouds
9:56 PM 37.0 °F 29.3 °F 3.9 °F 25% 30.47 in 10.0 mi ENE 11.5 mph 19.6 mph N/A   Scattered Clouds
10:56 PM 35.1 °F 26.4 °F 5.0 °F 28% 30.48 in 10.0 mi East 12.7 mph 21.9 mph N/A   Scattered Clouds
11:56 PM 34.0 °F 26.0 °F 3.0 °F 27% 30.48 in 10.0 mi ENE 10.4 mph - N/A   Clear